Location: ?????
(55.1926°N, 38.4910°E)
Time: 11:26:05
(UTC+00:00)

Daily predictions for brighter satellites

Satellite Brightness Start Highest point End
(mag) Time Altitude Azimuth Time Altitude Azimuth Time Altitude Azimuth
Cosmos 2263 Rocket 3.8 13:41:49 10° SE 13:44:53 15° E 13:47:59 10° ENE
Cosmos 1825 Rocket 3.5 13:41:54 10° N 13:46:14 71° ENE 13:50:32 10° SSE
Cosmos 2227 Rocket 2.8 13:41:24 10° S 13:46:35 38° ESE 13:51:47 10° NE
USA 306 2.1 13:44:37 10° W 13:46:55 49° SSW 13:49:02 10° ESE
ATLAS 2AS CENTAUR R/B 3.2 13:40:57 10° WNW 13:47:49 44° N 13:54:19 10° E
Cosmos 1500 4.1 13:45:29 10° N 13:48:27 24° ENE 13:51:24 10° ESE
Cosmos 2298 Rocket 4.4 13:45:04 10° S 13:50:10 50° ESE 13:55:20 10° NE
Meteor 2-21 4.5 13:44:27 10° S 13:50:34 71° E 13:56:45 10° NNE
Cosmos 1437 Rocket 3.1 13:47:20 10° N 13:50:50 39° ENE 13:54:21 10° SE
SJ-11-01 4.3 13:47:22 10° SSE 13:51:58 63° ENE 13:56:35 10° N
Cosmos 1603 4.5 13:47:20 10° NNW 13:52:27 32° NE 13:57:30 10° E
Cosmos 1869 3.1 13:50:09 10° S 13:53:55 75° E 13:57:42 10° NNE
SL-16 R/B 3.0 13:47:44 10° NNE 13:53:57 66° WNW 14:00:09 10° SW
H-2A R/B 3.4 13:49:26 10° S 13:54:15 42° W 13:59:00 10° NNW
CZ-2D R/B 3.2 13:50:58 10° SSE 13:54:35 57° ENE 13:58:12 10° N
UNK 4.3 13:50:35 10° N 13:55:06 59° WNW 13:59:38 10° SSW
RESURS DK-1 4.2 13:53:12 10° NNW 13:55:28 14° NNE 13:57:44 10° NE
Cosmos 2151 3.4 13:51:33 10° N 13:55:38 42° ENE 13:59:41 10° SE
CORIOLIS 4.4 13:51:24 10° SE 13:56:31 48° ENE 14:01:41 10° N
Cosmos 2251 Rocket 4.4 13:52:42 10° NNW 13:57:18 28° NE 14:01:54 10° ESE
Cosmos 2228 3.2 13:54:23 10° SSW 13:58:43 77° WNW 14:03:05 10° N
Cosmos 1238 Rocket 2.7 13:57:10 10° S 14:00:44 50° E 14:03:54 10° NNE
Cosmos 407 Rocket 4.4 13:58:08 10° NNW 14:02:37 28° NE 14:07:02 10° ESE
CZ-2C R/B 2.6 14:01:44 10° SSE 14:05:15 59° ENE 14:08:49 10° N
CZ-4B R/B 4.1 14:01:21 10° ESE 14:05:50 33° ENE 14:10:14 10° N
SL-16 R/B 2.3 14:00:34 10° NW 14:06:18 87° WSW 14:11:59 10° SSE
YAOGAN 1 4.3 14:05:18 10° ENE 14:07:19 13° NE 14:09:20 10° NNE
Helios 1B rocket 2.3 14:04:12 10° SSE 14:08:08 90° ENE 14:12:07 10° NNW
ARGOS 3.8 14:04:25 10° S 14:09:47 63° WSW 14:15:13 10° NNW
CZ-4B R/B 3.9 14:07:18 10° SE 14:10:42 42° ENE 14:14:10 10° N
CZ-2C R/B 3.7 14:10:36 10° N 14:15:39 44° WNW 14:20:35 10° SW
Lacrosse 4 Rocket 1.9 14:12:30 10° NNW 14:16:42 42° NE 14:20:48 10° ESE
Radarsat Rocket 4.4 14:11:20 10° ESE 14:16:42 40° NE 14:22:24 10° NNW
Cosmos 1634 Rocket 4.1 14:12:08 10° NNW 14:18:28 85° W 14:24:48 10° S
Cosmos 1943 3.4 14:14:51 10° NNW 14:20:21 51° NE 14:25:50 10° ESE
Meteor 1-31 Rocket 2.7 14:17:53 10° SSE 14:21:29 53° ENE 14:25:08 10° N
USA 305 2.9 14:18:13 10° W 14:22:00 69° SSW 14:25:50 10° ESE
NOSS 3-4 (A) 4.4 14:16:32 10° NW 14:23:10 63° SW 14:30:50 10° SSE
NOSS 3-4 (C) 4.4 14:16:41 10° NW 14:23:16 63° SW 14:30:50 10° SSE
Cosmos 1269 Rocket 4.1 14:18:25 10° NNW 14:23:45 87° WSW 14:29:03 10° SSE
Cosmos 614 Rocket 4.5 14:21:44 10° NNW 14:26:56 66° WSW 14:32:04 10° SSE
NOSS 3-3 (C) 3.9 14:22:01 10° SW 14:27:44 82° SE 14:33:37 14° NE
NOSS 3-3 (A) 3.9 14:22:24 10° SW 14:28:06 83° SE 14:33:58 14° NE
Cosmos 2084 4.0 14:24:37 10° W 14:28:16 39° NNW 14:30:59 16° NE
Meteor 2-16 Rocket 4.4 14:23:32 10° S 14:29:41 84° E 14:35:50 10° NNE
Cosmos 1544 2.7 14:26:54 10° NNW 14:30:11 89° E 14:33:27 10° S
Cosmos 1076 Rocket 3.4 14:26:42 10° N 14:31:05 73° ENE 14:35:26 10° SSE
Cosmos 2142 Rocket 4.4 14:25:25 10° N 14:31:36 78° ENE 14:37:43 10° SSE
ADEOS Rocket 4.4 14:31:37 14° NE 14:32:27 15° NE 14:35:27 10° N
USA 234 4.2 14:28:58 14° ENE 14:33:47 33° SE 14:39:33 10° SSW
Cosmos 2297 Rocket 2.4 14:28:58 10° SW 14:34:37 73° NW 14:40:14 10° NNE
Cosmos 2219 3.4 14:31:04 10° S 14:36:31 55° ESE 14:41:13 14° NE
ATLAS CENTAUR R/B 2.5 14:33:35 10° WNW 14:37:11 71° SSW 14:44:02 10° ESE
Cosmos 1953 Rocket 4.1 14:32:45 10° NNW 14:37:12 62° W 14:41:34 10° S
ADEOS 4.1 14:34:05 10° ESE 14:38:47 35° ENE 14:43:30 10° N
Cosmos 44 4.0 14:34:03 10° NW 14:39:26 65° SW 14:44:37 10° SSE
DMSP B5D2-2 4.1 14:34:27 10° NNE 14:39:40 64° ESE 14:44:50 10° S
Cosmos 1125 Rocket 4.1 14:35:47 10° SW 14:40:56 56° NW 14:46:10 10° NNE
Cosmos 1023 Rocket 4.5 14:37:06 10° NNW 14:42:15 58° ENE 14:47:18 10° SE
ERS-2 4.2 14:42:23 10° SSW 14:44:50 24° W 14:47:18 10° NW
Aureole 3 Rocket 4.3 14:40:31 10° NNW 14:45:47 48° W 14:49:38 10° SSW
Cosmos 2279 Rocket 4.1 14:40:25 10° NNW 14:46:42 80° W 14:52:55 10° S
SL-24 R/B - RUBIN 2 4.3 14:41:32 10° SW 14:47:07 83° NW 14:51:59 18° NE
Cosmos 1602 3.6 14:43:32 10° N 14:47:13 60° ENE 14:50:55 10° SSE
Cosmos 1666 2.3 14:49:01 10° N 14:52:34 82° ENE 14:56:07 10° SSE
Cosmos 2082 3.9 14:48:35 10° S 14:53:57 48° ESE 14:57:35 20° NE
USA 307 3.5 14:52:38 10° W 14:56:21 46° SSW 14:59:25 14° SE
Cosmos 1833 Rocket 4.0 14:53:24 10° NNW 14:57:42 21° NNE 14:59:09 19° NE
COSMO-SKYMED 1 3.4 14:57:28 27° ENE 14:58:13 28° E 15:01:59 10° SSE
AQUARIUS 4.3 14:54:23 10° S 14:58:51 75° WSW 15:03:21 10° NNW
ISS -1.6 14:56:38 10° W 14:59:26 24° SSW 15:02:14 10° SSE
Meteor PRIRODA 4.0 15:03:58 36° NE 15:03:58 36° NE 15:06:49 10° N
Cosmos 2058 Rocket 3.1 14:59:17 10° SSW 15:03:44 87° W 15:08:12 10° NNE
Cosmos 1606 4.4 15:01:45 10° SW 15:05:00 30° WNW 15:08:17 10° N
YAOGAN 11 4.4 15:01:45 10° NNE 15:06:16 74° WNW 15:10:48 10° SSW
Cosmos 1092 Rocket 4.5 15:02:46 10° SSE 15:08:10 34° E 15:13:36 10° NNE
Cosmos 1140 Rocket 3.4 15:03:18 10° NNW 15:08:33 82° ENE 15:13:43 10° SSE
Helios 1A 3.1 15:07:53 27° NE 15:09:50 49° E 15:13:52 10° S
CBERS 1 LM4 rocket 4.2 15:05:44 10° SSE 15:10:32 77° ENE 15:15:18 10° NNW
Nadezhda 4 Rocket 3.9 15:05:33 10° S 15:11:34 59° E 15:17:34 10° NNE
Cosmos 405 Rocket 3.3 15:09:42 10° SSW 15:13:27 57° WNW 15:17:03 11° N
Meteor 1-20 Rocket 4.1 15:10:07 10° NNW 15:15:41 81° ENE 15:21:19 10° SSE
SMAP 4.3 15:11:59 10° S 15:16:26 44° W 15:20:55 10° NNW
CZ-4B R/B 4.0 15:18:54 30° ENE 15:19:10 30° NE 15:23:58 10° N
Meteor 1-5 Rocket 4.4 15:16:11 10° N 15:21:34 45° ENE 15:27:05 10° SE
USA 306 4.1 15:20:28 10° WSW 15:21:45 14° SSW 15:22:12 13° SSW
CZ-4B R/B 3.2 15:23:15 38° ESE 15:24:21 48° ENE 15:28:25 10° N
Cosmos 676 Rocket 4.4 15:19:48 10° NNW 15:24:50 40° NE 15:25:43 38° ENE
Cosmos-2242 2.9 15:22:24 10° S 15:26:42 63° E 15:28:20 35° NNE
Cosmos 2263 Rocket 2.1 15:22:18 10° SSW 15:27:49 70° ESE 15:30:32 31° NE
Cosmos 2082 Rocket 3.8 15:24:02 10° NNW 15:27:52 18° NNE 15:28:33 18° NNE
NOAA 6 4.0 15:22:50 10° SSE 15:27:59 84° WSW 15:33:10 10° NNW
Cosmos 220 Rocket 4.1 15:24:08 10° NNW 15:28:23 50° NE 15:28:34 49° ENE
Cosmos 1844 Rocket 4.4 15:25:44 10° SSE 15:27:12 15° SE 15:27:12 15° SE
Cosmos 2227 Rocket 2.8 15:24:57 10° SW 15:30:31 54° NW 15:34:28 19° NNE
RESURS DK-1 3.2 15:30:30 10° NNW 15:33:35 35° NNE 15:33:35 35° NNE
Cosmos 1428 Rocket 4.5 15:28:26 10° S 15:34:36 59° E 15:40:45 10° NNE
Cosmos 1603 3.7 15:31:27 10° NW 15:37:12 81° WSW 15:42:51 10° SSE
ATLAS 2AS CENTAUR R/B 2.6 15:32:36 10° NW 15:39:41 74° NE 15:42:49 34° ESE
Cosmos 2251 Rocket 3.7 15:34:47 10° NNW 15:40:08 76° WSW 15:45:29 10° SSE
YAOGAN 1 2.4 15:42:20 64° E 15:42:33 65° ENE 15:46:51 10° N
CZ-4B R/B 4.3 15:39:25 10° S 15:44:21 50° W 15:49:12 10° NNW
Cosmos 407 Rocket 3.6 15:39:55 10° NNW 15:45:06 73° WSW 15:50:13 10° SSE
YAOGAN 3 4.4 15:40:58 10° SSE 15:45:17 82° ENE 15:49:39 10° NNW
SKYMED 2 3.4 15:46:05 66° NE 15:46:32 73° ESE 15:50:53 10° S
Cosmos 1812 2.7 15:44:35 10° SSW 15:47:52 69° SSW 15:47:52 69° SSW
Cosmos 724 4.3 15:44:00 10° SW 15:50:13 89° SE 15:52:30 42° NE
NOAA 15 4.4 15:46:36 10° SSE 15:51:54 78° ENE 15:57:13 10° NNW
Lacrosse 4 Rocket 2.6 15:51:02 10° NW 15:55:10 42° WSW 15:58:24 15° S
USA 305 4.2 15:53:11 10° W 15:56:33 29° SSW 15:57:19 27° S
Cosmos 44 Rocket 4.2 15:52:44 10° NW 15:57:24 36° NNE 15:57:24 36° NNE
Cosmos 1954 Rocket 3.9 15:52:49 10° NNW 15:58:08 71° ENE 15:58:42 65° ESE
Meteor 2-2 Rocket 4.1 15:55:09 10° S 16:00:55 81° ESE 16:04:34 24° NNE
Meteor 2-17 Rocket 4.3 15:56:54 10° S 16:03:00 72° E 16:07:09 22° NNE
Cosmos 1943 4.4 15:59:05 10° NW 16:04:21 42° WSW 16:09:36 10° S
Cosmos 2344 3.6 15:57:42 10° SSW 16:04:51 53° SE 16:06:06 48° E
IGS 5A 4.0 16:08:09 52° NW 16:08:09 52° NW 16:11:23 10° NNW
Cosmos 1607 4.1 16:01:38 10° WSW 16:08:00 71° NW 16:10:12 43° NNE
CZ-4B DEB 4.2 16:07:06 14° SSE 16:12:01 86° WSW 16:17:38 10° NNW
BREEZE-M DEB (TANK) 4.4 16:08:25 10° WSW 16:13:21 78° S 16:19:21 38° E
Cosmos 1190 Rocket 4.2 16:08:40 10° NNW 16:13:59 72° WSW 16:15:52 40° S
SL-08 R/B 3.6 16:15:08 55° SSW 16:15:08 55° SSW 16:18:45 10° SSW
Cosmos 1812 Rocket 3.9 16:10:33 10° SSW 16:14:50 61° WNW 16:15:10 59° NW
ADEOS Rocket 3.6 16:18:33 37° NNE 16:18:33 37° NNE 16:22:19 10° N
USA 234 3.2 16:16:19 59° E 16:17:32 73° SSE 16:24:04 10° WSW
ADEOS 4.4 16:13:06 10° S 16:18:09 50° W 16:23:16 10° NNW
Cosmos 2297 Rocket 3.9 16:14:58 10° W 16:19:38 25° NNW 16:22:02 19° N
Cosmos 2219 4.2 16:15:35 10° WSW 16:20:53 41° NW 16:23:08 29° N
Cosmos 1553 Rocket 3.9 16:16:38 10° N 16:23:03 85° ENE 16:25:40 38° SSE
PAYLOAD B 4.2 16:27:47 71° S 16:28:24 84° WSW 16:34:01 10° NNW
COSMO-SKYMED 1 3.6 16:34:41 44° WNW 16:34:41 44° WNW 16:38:41 10° SW
Cosmos 2026 Rocket 4.2 16:33:45 10° SSW 16:40:00 70° WNW 16:46:23 10° N
Cosmos 1833 Rocket 3.7 16:37:20 10° NNW 16:40:51 36° N 16:40:51 36° N
Lacrosse 5 4.3 16:45:11 10° SSW 16:45:41 12° SSW 16:45:41 12° SSW
Cosmos 1092 Rocket 4.5 16:47:16 10° SSW 16:53:17 56° WNW 16:59:06 11° N
CZ-4B R/B 3.9 17:00:48 50° NW 17:00:48 50° NW 17:05:01 10° NNW
Cosmos 2263 Rocket 3.5 17:07:09 10° WSW 17:12:13 34° NW 17:12:14 34° NW
Cosmos 2082 Rocket 4.1 17:08:19 10° NNW 17:10:23 21° NNW 17:10:23 21° NNW
Cosmos 2227 Rocket 4.1 17:11:31 10° WNW 17:15:49 22° NNW 17:16:17 21° NNW
ATLAS 2AS CENTAUR R/B 3.6 17:23:54 10° NW 17:30:15 40° WSW 17:30:17 40° WSW
USA 234 4.5 18:03:40 35° W 18:03:40 35° W 18:07:13 10° W
CENTAUR R/B 4.4 23:50:13 30° NE 23:50:13 30° NE 23:54:35 10° ENE
